Location: Gazon
(48.1318°N, 1.2708°W)
Time: 10:56:28
(UTC+00:00)

Daily predictions for brighter satellites

Satellite Brightness Start Highest point End
(mag) Time Altitude Azimuth Time Altitude Azimuth Time Altitude Azimuth
Cosmos 2016 Rocket 4.5 18:30:43 10° SSW 18:37:00 71° W 18:43:15 10° N
USA 234 4.5 18:38:51 10° E 18:43:16 19° ESE 18:47:39 10° SSE
CREW DRAGON DEMO-1 DEB 3.7 18:41:29 10° W 18:44:24 45° N 18:47:21 10° ENE
USA 102 4.3 18:39:39 10° SE 18:45:38 56° ENE 18:48:55 10° N
Cosmos 1782 Rocket 3.7 18:44:33 10° S 18:48:50 54° E 18:53:11 10° NNE
Cosmos 1975 2.8 18:45:50 10° S 18:49:53 68° E 18:53:58 10° NNE
Cosmos 2233 Rocket 4.0 18:43:47 10° S 18:50:01 82° E 18:56:15 10° N
CZ-4 R/B 2.1 18:46:41 10° S 18:50:52 63° WSW 18:55:03 10° NNW
Cosmos 1908 Rocket 3.7 18:46:41 10° S 18:51:02 82° WNW 18:55:27 10° N
Cosmos 1025 Rocket 4.1 18:48:00 10° NNE 18:51:41 26° ENE 18:55:21 10° SE
USA 186 3.1 18:49:18 10° ESE 18:51:47 22° ENE 18:54:21 10° NNE
Meteor 2-11 Rocket 4.4 18:46:31 10° S 18:52:37 71° E 18:58:46 10° NNE
Cosmos 2112 Rocket 4.4 18:50:41 10° NNW 18:55:51 67° WSW 19:01:02 10° S
Cosmos 1680 Rocket 4.4 18:54:34 10° NNW 18:59:39 53° WSW 19:04:44 10° S
Cosmos 1544 3.8 18:57:07 10° SSW 19:00:44 58° WNW 19:04:21 10° N
Cosmos 1937 Rocket 3.5 18:55:37 10° S 19:00:48 63° ESE 19:05:58 10° NNE
OPS 6432 4.3 18:57:58 10° NW 19:01:03 74° NE 19:04:53 10° SE
OBJECT-B 2.8 19:01:23 12° E 19:02:22 13° ENE 19:04:02 10° NNE
MOS 1 Rocket 3.3 18:59:37 10° NNE 19:04:02 50° E 19:08:14 10° S
FREGAT/IRIS 3.9 19:05:31 16° E 19:06:20 19° ENE 19:08:16 10° NNE
Cosmos 1842 3.6 19:02:50 10° NNW 19:06:42 68° W 19:10:31 10° S
Cosmos 1674 4.4 19:05:47 10° NNE 19:08:24 17° ENE 19:09:42 15° E
Cosmos 1975 Rocket 3.0 19:07:20 10° N 19:11:42 87° W 19:16:01 10° S
NOSS 8 (H) 4.0 19:09:31 10° SW 19:12:41 83° SE 19:15:43 10° NE
Cosmos 2084 Rocket 4.3 19:10:50 10° NW 19:15:09 51° SW 19:19:32 10° SSE
In-Cosmos 22 4.3 19:10:28 10° N 19:15:36 49° ENE 19:20:46 10° SSE
NOSS 2-2 (E) 3.2 19:13:05 10° SSW 19:16:28 50° SE 19:20:18 10° NE
Resurs 01 Rocket 3.2 19:19:16 16° E 19:20:49 19° ENE 19:23:57 10° NNE
H-2A R/B 2.2 19:16:01 10° S 19:20:57 74° WSW 19:26:03 10° NNW
Cosmos 1707 2.6 19:17:22 10° N 19:21:13 65° E 19:25:01 10° SSE
ARGOS 3.1 19:16:47 10° SSE 19:22:09 87° ENE 19:27:34 10° NNW
SJ-6B 3.1 19:21:48 16° SE 19:24:28 43° ENE 19:28:04 10° N
CZ-2C R/B 3.0 19:19:15 10° NNE 19:24:31 43° E 19:29:48 10° SSE
NOSS 2-2 (D) 3.3 19:21:35 10° SSW 19:24:56 48° SE 19:28:41 10° NE
Sich 1 Rocket 3.5 19:22:33 10° S 19:27:02 81° E 19:31:36 10° NNE
MOS 1 4.4 19:23:29 10° SSE 19:29:03 59° ENE 19:34:40 10° N
Cosmos 1048 Rocket 4.4 19:25:36 10° NNW 19:30:44 48° ENE 19:34:10 20° SE
ATLAS CENTAUR R/B 4.1 19:29:33 10° NW 19:31:16 12° NNW 19:32:56 10° N
CENTAUR R/B 3.5 19:24:55 10° NW 19:32:30 51° NE 19:38:33 20° ESE
ARIANE 5 R/B 4.3 19:37:42 17° ENE 19:38:09 17° ENE 19:40:55 10° NNE
ATLAS 3B R/B 4.0 19:32:26 10° NW 19:38:09 28° NNE 19:42:49 14° ENE
SL-08 RB Rocket 3.7 19:33:56 10° SSE 19:38:33 89° W 19:43:09 10° NNW
Cosmos 2263 Rocket 2.8 19:33:09 10° SW 19:38:40 60° WNW 19:44:13 10° NNE
USA 238 DEB 3.9 19:33:28 10° NW 19:40:37 67° NE 19:45:38 22° ESE
USA 238 3.9 19:33:34 10° NW 19:40:43 67° NE 19:45:43 22° ESE
ISS -3.2 19:37:42 10° SW 19:40:52 38° SE 19:41:14 36° SE
Abrixas rocket 1.7 19:39:01 10° W 19:41:53 87° N 19:42:31 49° E
SJ 16-02 4.0 19:39:05 10° WSW 19:42:35 23° NW 19:46:06 10° N
Cosmos 1513 Rocket 4.4 19:36:24 10° S 19:42:41 83° E 19:48:53 10° N
Cosmos 1844 Rocket 3.0 19:40:49 10° S 19:45:56 39° ESE 19:51:05 10° NE
Okean 2 Rocket 3.0 19:42:39 10° S 19:47:10 84° E 19:51:40 10° N
Cosmos 1464 Rocket 3.9 19:44:41 10° S 19:50:49 90° SSE 19:57:02 10° N
Lacrosse 5 rocket 3.1 19:47:25 10° WNW 19:51:15 30° NNW 19:55:13 10° NE
Okean 1 Rocket 3.7 19:51:22 32° E 19:51:37 33° E 19:55:39 10° NNE
IRS-1A Rocket 4.4 19:47:37 10° SSE 19:53:33 83° WSW 19:59:27 10° NNW
Ariane Rocket 3.1 19:50:11 10° S 19:55:14 77° WSW 20:00:21 10° NNW
Cosmos 1092 Rocket 4.1 19:51:00 10° N 19:57:02 53° ENE 20:00:15 27° SE
Meteor 1-12 Rocket 4.4 19:52:30 10° SSW 19:58:26 83° W 20:04:18 10° N
Meteor 1-15 Rocket 4.3 19:53:11 10° S 19:58:37 55° E 20:04:11 10° NNE
Resurs 1-3 3.6 19:57:57 36° SE 19:59:31 59° ENE 20:03:52 10° N
Cosmos 1300 Rocket 3.7 19:55:47 10° SSW 20:00:10 75° W 20:04:37 10° N
Cosmos 494 Rocket 4.1 19:58:36 10° NNW 20:03:48 58° ENE 20:05:36 38° ESE
Cosmos 2026 Rocket 4.3 19:58:23 10° N 20:04:31 47° ENE 20:06:56 33° SE
Cosmos 2298 Rocket 3.9 19:59:19 10° SSW 20:04:37 75° ESE 20:09:58 10° NNE
Meteor 2-13 Rocket 4.4 19:59:38 10° N 20:05:47 63° ENE 20:09:02 29° SSE
CZ-2C R/B 4.1 20:01:35 10° NNE 20:05:31 40° E 20:05:31 40° E
SPOT 3 Rocket 3.5 20:03:38 33° SE 20:05:52 64° ENE 20:11:00 10° N
Cosmos 1833 Rocket 4.0 20:01:50 10° N 20:06:21 24° NE 20:07:46 22° ENE
MetOp-A 4.2 20:03:48 16° S 20:08:12 78° WSW 20:13:36 10° NNW
NOSS 3-2 (A) 4.0 20:01:29 10° NW 20:08:58 88° SW 20:13:57 28° SE
NOSS 2-2 (C) 3.5 20:06:00 10° SW 20:09:30 63° NW 20:13:29 10° NE
Cosmos 1536 Rocket 3.9 20:11:20 10° NNW 20:15:44 63° W 20:18:27 23° S
Terra 3.9 20:19:13 13° NE 20:19:13 13° NE 20:20:53 10° NNE
Cosmos 1626 3.3 20:15:30 10° N 20:17:51 30° NNE 20:17:51 30° NNE
CREW DRAGON DEMO-1 DEB 3.9 20:17:26 10° WNW 20:19:51 41° NNW 20:19:51 41° NNW
USA 186 4.1 20:20:18 12° SW 20:22:24 22° W 20:25:01 10° NW
DMSP B5D2-2 4.3 20:21:35 10° N 20:26:52 71° WNW 20:32:07 10° SSW
USA 234 3.2 20:20:37 10° ENE 20:27:08 64° SE 20:33:38 10° SW
Cosmos 2151 Rocket 4.4 20:24:06 10° SSW 20:28:26 52° WNW 20:32:51 10° N
Meteor 2-5 Rocket 3.6 20:23:16 10° N 20:28:55 77° ENE 20:30:35 48° SSE
OBJECT-B 2.0 20:34:35 41° W 20:34:35 41° W 20:37:30 10° NNW
Cosmos 2150 Rocket 4.3 20:29:26 10° SSW 20:34:47 71° WNW 20:40:16 10° NNE
Cosmos 1805 3.6 20:35:56 57° N 20:35:56 57° N 20:39:07 10° N
SPOT 5 4.3 20:40:10 27° NE 20:40:10 27° NE 20:43:59 10° N
NOSS 3-2 (C) 4.0 20:35:37 10° NW 20:43:07 85° SW 20:46:11 44° SSE
Meteor 1-22 Rocket 4.2 20:43:04 61° SE 20:43:41 65° E 20:49:38 10° NNE
Cosmos 1674 3.7 20:40:29 10° NNW 20:44:08 42° W 20:44:32 40° WSW
BREEZE-M DEB (TANK) 4.4 20:41:22 10° W 20:45:09 38° SSW 20:47:13 33° S
Cosmos 1125 Rocket 3.5 20:40:12 10° SSW 20:45:31 82° WNW 20:50:53 10° NNE
Cosmos 2082 Rocket 3.4 20:41:38 10° N 20:46:22 27° NE 20:46:33 27° NE
SL-14 R/B 4.4 20:49:03 10° N 20:51:36 39° N 20:51:36 39° N
COSMOS 2406 3.3 20:48:43 10° NNW 20:54:19 57° ENE 20:54:20 57° ENE
Meteor 1-24 Rocket 3.6 20:50:16 10° NNW 20:55:46 85° W 20:56:23 72° S
ERS-1 Rocket 3.9 20:57:24 35° NE 20:57:24 35° NE 21:01:01 10° N
Resurs 01 Rocket 2.1 20:56:51 57° WSW 20:56:55 57° W 21:01:20 10° NNW
Lacrosse 4 Rocket 3.5 21:00:21 10° N 21:02:11 19° NNE 21:02:11 19° NNE
Cosmos 2098 Rocket 4.3 20:56:46 10° N 21:03:50 54° ENE 21:03:50 54° ENE
Landsat 7 4.1 21:04:41 62° N 21:04:41 62° N 21:08:39 10° NNW
CZ-2C R/B 4.3 20:59:47 10° N 21:04:41 34° WNW 21:09:38 10° SW
Exosat Rocket 3.9 21:00:41 10° SW 21:06:10 63° WNW 21:11:09 10° NNE
ATLAS 2AS CENTAUR R/B 3.0 21:03:36 10° SSW 21:11:59 60° ESE 21:19:07 10° NE
Cosmos 1655 Rocket 4.1 21:06:42 10° N 21:12:30 61° ENE 21:12:30 61° ENE
SPOT 1/Viking Rocket 3.8 21:14:25 64° N 21:14:25 64° N 21:18:48 10° NNW
ARIANE 5 R/B 3.6 21:15:16 45° NW 21:15:16 45° NW 21:18:29 10° NNW
Cosmos 2278 Rocket 4.4 21:22:33 13° NE 21:22:33 13° NE 21:23:12 10° NE
Cosmos 1844 4.2 21:12:19 10° SW 21:17:55 56° WNW 21:23:29 10° NNE
Cosmos 1634 Rocket 4.4 21:19:01 36° SW 21:21:26 60° WNW 21:27:34 10° N
Cosmos 1269 Rocket 4.5 21:17:05 10° NNW 21:21:56 57° W 21:21:56 57° W
CENTAUR R/B 3.5 21:15:41 10° NW 21:23:37 60° WSW 21:25:44 48° S
Spot 2 Rocket 4.1 21:28:19 55° NW 21:28:19 55° NW 21:32:27 10° NNW
Cosmos 1844 Rocket 3.9 21:24:38 10° WSW 21:29:49 39° NW 21:35:04 10° NNE
ATLAS 3B R/B 2.7 21:23:07 10° NW 21:29:58 73° NE 21:30:03 72° NE
Lacrosse 5 rocket 3.4 21:27:37 10° NW 21:30:50 27° N 21:30:50 27° N
Cosmos 909 Rocket 4.3 21:41:04 10° NW 21:46:53 62° N 21:46:53 62° N
Cosmos 1833 Rocket 3.4 21:45:15 10° NNW 21:49:28 51° NW 21:49:28 51° NW
Terra 3.6 21:58:06 29° NNW 21:58:06 29° NNW 22:00:24 10° NNW
USA 234 3.7 22:06:56 30° NE 22:10:07 58° NNW 22:16:30 10° W
Cosmos 2082 Rocket 3.7 22:25:21 10° NNW 22:28:23 33° NW 22:28:23 33° NW
Cosmos 2278 Rocket 4.1 23:04:22 26° N 23:04:22 26° N 23:07:16 10° NNE
ATLAS 2AS CENTAUR R/B 3.8 22:59:08 30° W 23:02:44 48° NW 23:10:15 10° NE
ATLAS 3B R/B 4.5 23:14:23 10° NW 23:17:17 22° WNW 23:17:17 22° WNW
